IK7IZV Weather Reports


Display with metric or nautical units.
time (UTC)temp
F
wind
direction
speed
MPH
gust
MPH
rain 1hr
in
rain 24hr
in
rain mn
in
humidity
%
barometer
mb
20260507171555 69 210 8.0 14.0 0.00 0.25 0.25 36 1015.3
20260507170057 70 215 8.0 12.0 0.00 0.25 0.25 35 1015.2
20260507164627 70 210 7.0 13.0 0.00 0.25 0.25 36 1015.3
20260507163056 71 202 4.0 14.0 0.00 0.25 0.25 36 1015.3
20260507161558 71 224 6.0 15.0 0.00 0.25 0.25 36 1015.4
20260507160052 71 209 8.0 15.0 0.00 0.25 0.25 36 1015.3
20260507154556 72 222 7.0 14.0 0.00 0.25 0.25 34 1015.4
20260507153051 72 216 9.0 16.0 0.00 0.25 0.25 36 1015.1
20260507151550 73 208 8.0 16.0 0.00 0.25 0.25 35 1015.2
20260507150049 73 291 6.0 14.0 0.00 0.25 0.25 35 1015.1
20260507144546 73 229 7.0 15.0 0.00 0.25 0.25 37 1015.3
20260507143047 72 31 6.0 11.0 0.00 0.25 0.25 42 1015.4
20260507141544 72 253 8.0 17.0 0.00 0.25 0.25 44 1015.5
20260507140045 73 224 6.0 15.0 0.00 0.25 0.25 41 1015.5
20260507134544 74 257 11.0 22.0 0.00 0.25 0.25 43 1015.5
20260507133047 73 227 9.0 18.0 0.00 0.25 0.25 44 1015.5
20260507131541 73 261 8.0 16.0 0.00 0.25 0.25 47 1015.7
20260507130042 72 223 9.0 17.0 0.00 0.25 0.25 50 1015.9
20260507124540 73 192 6.0 14.0 0.00 0.25 0.25 49 1016.0
20260507123037 73 264 10.0 17.0 0.00 0.25 0.25 49 1016.1
20260507121535 73 272 8.0 19.0 0.00 0.25 0.25 51 1015.8
20260507120033 73 229 7.0 20.0 0.00 0.25 0.25 55 1015.9
20260507114553 72 247 7.0 20.0 0.00 0.25 0.25 57 1015.7
20260507113057 72 251 11.0 21.0 0.00 0.25 0.25 58 1016.0
20260507111536 72 5 6.0 21.0 0.00 0.25 0.25 62 1016.0
20260507110025 71 258 14.0 22.0 0.00 0.25 0.25 62 1016.4
20260507104527 70 218 13.0 24.0 0.00 0.25 0.25 63 1016.2
20260507103025 70 273 12.0 22.0 0.00 0.25 0.25 64 1016.3
20260507101524 70 328 12.0 28.0 0.00 0.25 0.25 65 1016.4
20260507100020 70 305 12.0 30.0 0.00 0.25 0.25 64 1016.4
20260507094517 69 231 9.0 21.0 0.00 0.25 0.25 68 1016.4
20260507093014 68 215 10.0 24.0 0.00 0.25 0.25 70 1016.4
20260507091512 68 250 9.0 18.0 0.00 0.25 0.25 72 1016.2
20260507090009 67 270 11.0 25.0 0.00 0.25 0.25 76 1015.8
20260507084507 67 214 15.0 24.0 0.00 0.25 0.25 79 1015.5
20260507083004 66 217 9.0 24.0 0.00 0.25 0.25 80 1015.4
20260507081503 66 224 11.0 19.0 0.00 0.25 0.25 80 1015.4
20260507080059 65 261 10.0 17.0 0.00 0.25 0.25 80 1015.5
20260507074600 64 213 10.0 27.0 0.00 0.25 0.25 82 1015.8
20260507073100 64 211 12.0 28.0 0.00 0.25 0.25 82 1016.3
20260507071555 63 248 13.0 26.0 0.00 0.25 0.25 82 1016.5
20260507070054 63 258 8.0 16.0 0.00 0.25 0.25 83 1016.3
20260507064555 62 229 8.0 17.0 0.00 0.25 0.25 82 1016.1
20260507063051 62 181 11.0 18.0 0.01 0.25 0.25 83 1016.2
20260507061551 61 229 7.0 18.0 0.02 0.25 0.25 88 1016.8
20260507060056 61 218 9.0 19.0 0.02 0.25 0.25 90 1017.4
20260507054548 62 224 7.0 13.0 0.03 0.25 0.25 91 1017.4
20260507053037 62 204 5.0 10.0 0.03 0.24 0.24 91 1017.5
20260507051536 62 184 5.0 9.0 0.03 0.24 0.24 91 1017.6
20260507050035 62 186 4.0 8.0 0.06 0.23 0.23 91 1017.8
20260507044534 62 212 3.0 7.0 0.08 0.22 0.22 91 1017.6
20260507043035 62 201 3.0 4.0 0.09 0.21 0.21 91 1017.2
20260507041531 62 178 2.0 8.0 0.08 0.20 0.20 90 1017.2
20260507040030 62 213 3.0 10.0 0.06 0.17 0.17 90 1017.5
20260507034534 61 210 5.0 16.0 0.02 0.14 0.14 91 1017.4
20260507033026 61 243 6.0 15.0 0.02 0.13 0.13 91 1017.3
20260507031524 61 224 7.0 13.0 0.04 0.13 0.13 91 1017.1
20260507030022 61 279 3.0 9.0 0.04 0.12 0.12 91 1016.8
20260507024519 61 261 2.0 5.0 0.05 0.12 0.12 90 1016.3
20260507023016 62 319 2.0 4.0 0.04 0.09 0.09 89 1016.3
20260507021515 62 271 0.0 12.0 0.04 0.09 0.09 89 1015.9
20260507020018 62 205 5.0 15.0 0.04 0.08 0.08 88 1015.9
20260507014512 62 221 8.0 17.0 0.02 0.06 0.06 87 1016.3
20260507013009 62 238 6.0 11.0 0.04 0.06 0.06 87 1016.4
20260507011512 63 307 4.0 7.0 0.04 0.05 0.05 86 1016.3
20260507010006 62 224 2.0 7.0 0.03 0.04 0.04 87 1016.2
20260507004504 63 274 3.0 8.0 0.04 0.04 0.04 87 1016.4
20260507003001 63 222 3.0 7.0 0.02 0.02 0.02 86 1016.1
20260507001502 63 223 1.0 4.0 0.01 0.01 0.01 85 1016.0
20260506234603 64 255 0.0 0.0 0.00 0.00 0.00 84 1015.7
20260506233100 64 289 0.0 0.0 0.00 0.00 0.00 83 1015.9
20260506231605 64 209 1.0 5.0 0.00 0.00 0.00 82 1015.7
20260506230111 64 321 0.0 7.0 0.00 0.00 0.00 81 1015.8
20260506224555 64 271 0.0 6.0 0.00 0.00 0.00 81 1015.8
20260506223052 64 307 1.0 9.0 0.00 0.00 0.00 81 1016.0
20260506221605 64 214 2.0 7.0 0.00 0.00 0.00 81 1016.0
20260506220049 65 264 4.0 9.0 0.00 0.00 0.00 81 1016.1
20260506214554 65 240 5.0 14.0 0.00 0.00 0.00 80 1016.1
20260506213048 64 259 5.0 12.0 0.00 0.00 0.00 80 1016.1
20260506211547 64 279 4.0 11.0 0.00 0.00 0.00 80 1016.2
20260506210054 64 290 5.0 11.0 0.00 0.00 0.00 80 1016.0
20260506204547 64 293 6.0 11.0 0.00 0.00 0.00 80 1015.7
20260506203045 64 249 3.0 13.0 0.00 0.00 0.00 80 1015.6
20260506201545 64 266 6.0 13.0 0.00 0.00 0.00 79 1015.6
20260506200043 64 264 5.0 20.0 0.00 0.00 0.00 79 1015.4
20260506194543 64 266 7.0 13.0 0.00 0.00 0.00 78 1015.4
20260506193046 65 262 7.0 16.0 0.00 0.00 0.00 78 1015.3
20260506191542 65 279 7.0 15.0 0.00 0.00 0.00 78 1015.2
20260506190040 65 260 10.0 23.0 0.00 0.00 0.00 78 1015.0
20260506184544 65 249 7.0 16.0 0.00 0.00 0.00 78 1014.9
20260506183038 65 222 7.0 17.0 0.00 0.00 0.00 78 1014.9
20260506181541 65 229 10.0 22.0 0.00 0.00 0.00 78 1015.0
20260506180035 65 243 12.0 23.0 0.00 0.00 0.00 77 1014.9
20260506174536 66 295 7.0 20.0 0.00 0.00 0.00 77 1014.9
20260506173030 66 252 9.0 19.0 0.00 0.00 0.00 76 1014.8